TimeEST,TemperatureF,Dew PointF,Humidity,Sea Level PressureIn,VisibilityMPH,Wind Direction,Wind SpeedMPH,Gust SpeedMPH,PrecipitationIn,Events,Conditions,WindDirDegrees,DateUTC
12:54 AM,53.1,44.1,71,29.97,10.0,West,4.6,-,N/A,,Overcast,270,2011-11-16 05:54:00
1:54 AM,54.0,42.1,64,29.96,10.0,Calm,Calm,-,N/A,,Mostly Cloudy,0,2011-11-16 06:54:00
2:54 AM,51.1,44.1,77,29.96,10.0,SSW,3.5,-,N/A,,Clear,210,2011-11-16 07:54:00
3:54 AM,52.0,44.1,74,29.93,10.0,South,4.6,-,N/A,,Clear,170,2011-11-16 08:54:00
4:09 AM,51.8,44.6,76,29.93,10.0,South,3.5,-,N/A,,Mostly Cloudy,190,2011-11-16 09:09:00
4:17 AM,51.8,44.6,76,29.93,10.0,Calm,Calm,-,N/A,,Scattered Clouds,0,2011-11-16 09:17:00
4:54 AM,51.1,46.0,83,29.95,10.0,SSW,3.5,-,N/A,,Clear,210,2011-11-16 09:54:00
5:14 AM,51.8,46.4,82,29.93,10.0,Calm,Calm,-,N/A,,Mostly Cloudy,0,2011-11-16 10:14:00
5:22 AM,51.8,46.4,82,29.93,10.0,South,3.5,-,N/A,,Scattered Clouds,190,2011-11-16 10:22:00
5:54 AM,51.1,46.9,86,29.94,10.0,Calm,Calm,-,N/A,,Partly Cloudy,0,2011-11-16 10:54:00
6:54 AM,51.8,46.4,82,29.94,10.0,South,5.8,-,N/A,,Mostly Cloudy,170,2011-11-16 11:54:00
7:54 AM,51.1,48.0,89,29.95,10.0,SSW,5.8,-,N/A,,Clear,200,2011-11-16 12:54:00
8:54 AM,52.0,48.9,89,29.95,10.0,SSW,6.9,-,N/A,,Mostly Cloudy,210,2011-11-16 13:54:00
9:54 AM,55.0,50.0,83,29.94,10.0,SW,8.1,-,N/A,,Overcast,220,2011-11-16 14:54:00
10:54 AM,55.9,48.9,77,29.91,10.0,SW,11.5,-,N/A,,Overcast,220,2011-11-16 15:54:00
11:54 AM,57.0,48.9,74,29.85,10.0,SSW,10.4,-,N/A,,Mostly Cloudy,200,2011-11-16 16:54:00
12:54 PM,57.0,48.9,74,29.84,10.0,SW,8.1,-,N/A,,Overcast,220,2011-11-16 17:54:00
1:54 PM,55.9,52.0,87,29.81,5.0,SSW,4.6,-,0.01,Rain,Light Rain,200,2011-11-16 18:54:00
2:47 PM,53.6,53.6,100,29.79,4.0,Calm,Calm,-,0.03,Rain,Light Rain,0,2011-11-16 19:47:00
2:54 PM,54.0,53.1,97,29.79,3.0,Calm,Calm,-,0.04,Rain,Light Rain,0,2011-11-16 19:54:00
3:19 PM,53.6,53.6,100,29.78,2.0,Calm,Calm,-,0.02,Rain,Light Rain,0,2011-11-16 20:19:00
3:27 PM,53.6,53.6,100,29.77,1.5,SSW,4.6,-,0.04,Rain,Rain,210,2011-11-16 20:27:00
3:39 PM,53.6,53.6,100,29.77,1.8,South,3.5,-,0.06,Rain,Rain,190,2011-11-16 20:39:00
3:54 PM,54.0,53.1,97,29.77,1.2,Calm,Calm,-,0.10,Rain,Rain,0,2011-11-16 20:54:00
4:01 PM,53.6,53.6,100,29.77,1.2,South,4.6,-,0.02,Rain,Rain,190,2011-11-16 21:01:00
4:38 PM,53.6,53.6,100,29.76,1.0,Calm,Calm,-,0.10,Rain,Rain,0,2011-11-16 21:38:00
4:54 PM,53.1,53.1,100,29.75,1.2,Calm,Calm,-,0.13,Rain,Rain,0,2011-11-16 21:54:00
5:05 PM,53.6,53.6,100,29.74,1.2,Calm,Calm,-,0.01,Rain,Rain,0,2011-11-16 22:05:00
5:17 PM,53.6,53.6,100,29.73,1.0,North,3.5,-,0.03,Rain,Light Rain,360,2011-11-16 22:17:00
5:27 PM,53.6,53.6,100,29.73,0.8,North,4.6,-,0.04,Rain,Light Rain,10,2011-11-16 22:27:00
5:32 PM,53.6,53.6,100,29.73,1.2,Calm,Calm,-,0.04,Rain,Light Rain,0,2011-11-16 22:32:00
5:39 PM,53.6,53.6,100,29.72,3.0,NE,3.5,-,0.05,Rain,Light Rain,40,2011-11-16 22:39:00
5:42 PM,53.6,53.6,100,29.72,1.5,NE,3.5,-,0.06,Rain,Light Rain,50,2011-11-16 22:42:00
5:49 PM,53.6,53.6,100,29.71,0.5,NNE,3.5,-,0.06,Fog-Rain,Light Rain,20,2011-11-16 22:49:00
5:50 PM,53.1,53.1,100,29.73,0.5,NNE,3.5,-,0.06,Fog-Rain,Light Rain,30,2011-11-16 22:50:00
5:57 PM,53.6,53.6,100,29.72,0.2,Calm,Calm,-,0.00,Fog-Rain,Light Rain,0,2011-11-16 22:57:00
6:15 PM,53.6,53.6,100,29.73,0.8,Calm,Calm,-,0.01,Rain,Light Rain,0,2011-11-16 23:15:00
6:21 PM,53.6,53.6,100,29.74,2.0,Calm,Calm,-,0.01,Rain,Light Rain,0,2011-11-16 23:21:00
6:54 PM,53.1,53.1,100,29.74,2.0,Calm,Calm,-,0.03,Rain,Light Rain,0,2011-11-16 23:54:00
7:03 PM,53.6,53.6,100,29.73,1.8,Calm,Calm,-,0.00,Rain,Light Rain,0,2011-11-17 00:03:00
7:21 PM,53.6,53.6,100,29.72,1.8,NNE,3.5,-,0.02,Rain,Light Rain,20,2011-11-17 00:21:00
7:32 PM,53.6,53.6,100,29.72,1.2,North,4.6,-,0.02,Rain,Light Rain,350,2011-11-17 00:32:00
7:38 PM,53.6,53.6,100,29.73,2.0,NNW,3.5,-,0.02,Rain,Light Rain,330,2011-11-17 00:38:00
7:52 PM,53.6,51.8,94,29.72,5.0,NW,3.5,-,0.02,Rain,Light Rain,320,2011-11-17 00:52:00
7:54 PM,53.1,52.0,96,29.73,5.0,Calm,Calm,-,0.02,Rain,Light Rain,0,2011-11-17 00:54:00
8:10 PM,53.6,51.8,94,29.73,4.0,NW,6.9,-,N/A,Rain,Light Rain,310,2011-11-17 01:10:00
8:36 PM,53.6,51.8,94,29.73,4.0,NNW,8.1,-,0.03,Rain,Light Rain,330,2011-11-17 01:36:00
8:50 PM,53.6,51.8,94,29.73,7.0,NW,5.8,-,0.04,Rain,Light Rain,320,2011-11-17 01:50:00
8:54 PM,53.1,52.0,96,29.74,9.0,NW,6.9,-,0.04,Rain,Light Rain,320,2011-11-17 01:54:00
9:06 PM,53.6,51.8,94,29.74,7.0,NW,5.8,-,0.00,Rain,Light Rain,310,2011-11-17 02:06:00
9:54 PM,52.0,51.1,97,29.75,9.0,WNW,9.2,-,0.03,Rain,Light Rain,300,2011-11-17 02:54:00
10:54 PM,52.0,50.0,93,29.71,10.0,NW,8.1,-,0.01,,Overcast,310,2011-11-17 03:54:00
11:54 PM,51.1,50.0,96,29.72,10.0,WNW,9.2,-,0.00,Rain,Light Rain,290,2011-11-17 04:54:00